Location: Utrecht
(52.0907°N, 5.1214°E)
Time: 10:52:59
(UTC+02:00)

MOZHAYETS 4 - Pass Details

Date: 09 July 2022
Orbit: 660 x 679 km, 98.2° (Epoch: 09 August)

Event Time Altitude Azimuth Distance (km) Brightness Sun altitude
Rises 02:29:37 0° 124° (ESE) 3,017 10.9 -14.9°
Reaches altitude 10° 02:32:14 10° 109° (ESE) 2,104 10.2 -14.8°
Maximum altitude 02:35:45 22° 59° (ENE) 1,450 10.0 -14.7°
Drops below altitude 10° 02:39:16 10° 9° (N) 2,105 11.7 -14.6°
Sets 02:41:53 0° 355° (N) 3,020 12.5 -14.5°
